When you browse on this site, cookies collect data to enhance your experience and personalize the content and advertising you see.
Visit our Privacy Policy to learn more. By continuing to use the site, you agree to this use of cookies and data.
  • In Romania
  • List of Countries
  • For 7 days
  • Water Temperature
  • Weather Map
  • Weather Widgets
  • user-avatar
    Login

    Hourly Weather Bururi

    Today, 3 April, Friday

    Time Temperature Precipitation Wind Pressure Humidity
    00:00 +18°C° 0 mm 1 mps 615 mmHg 86%
    01:00 +18°C° 0 mm 1 mps 615 mmHg 86%
    02:00 +18°C° 0 mm 1 mps 614 mmHg 84%
    03:00 +18°C° 0.1 mm 1 mps 614 mmHg 85%
    04:00 +18°C° 0.1 mm 1 mps 614 mmHg 85%
    05:00 +16°C° 0.1 mm 1 mps 615 mmHg 86%
    06:00 +18°C° 0.2 mm 1 mps 615 mmHg 85%
    07:00 +20°C° 0.2 mm 1 mps 616 mmHg 84%
    08:00 +21°C° 0 mm 1 mps 617 mmHg 83%
    09:00 +22°C° 0.7 mm 1 mps 617 mmHg 81%
    10:00 +22°C° 0.7 mm 1 mps 617 mmHg 80%
    11:00 +23°C° 0.7 mm 2 mps 618 mmHg 79%
    12:00 +23°C° 1.4 mm 1 mps 617 mmHg 81%
    13:00 +23°C° 1.4 mm 1 mps 617 mmHg 82%
    14:00 +22°C° 0 mm 1 mps 616 mmHg 82%
    15:00 +22°C° 1.5 mm 1 mps 616 mmHg 85%
    16:00 +21°C° 1.5 mm 1 mps 616 mmHg 87%
    17:00 +21°C° 1.5 mm 1 mps 616 mmHg 90%
    18:00 +20°C° 0.3 mm 1 mps 616 mmHg 91%
    19:00 +19°C° 0.3 mm 1 mps 615 mmHg 92%
    20:00 +18°C° 0.3 mm 1 mps 615 mmHg 93%
    21:00 +18°C° 0.1 mm 1 mps 616 mmHg 93%
    22:00 +16°C° 0.1 mm 1 mps 616 mmHg 93%
    23:00 +16°C° 0.1 mm 1 mps 616 mmHg 93%

    Tomorrow, 4 April, Saturday

    Time Temperature Precipitation Wind Pressure Humidity
    00:00 +16°C° 0.1 mm 1 mps 616 mmHg 94%
    01:00 +16°C° 0.1 mm 1 mps 616 mmHg 94%
    02:00 +16°C° 0.1 mm 1 mps 615 mmHg 94%
    03:00 +16°C° 0 mm 1 mps 616 mmHg 94%
    04:00 +16°C° 0 mm 1 mps 616 mmHg 94%
    05:00 +16°C° 0 mm 1 mps 616 mmHg 94%
    06:00 +18°C° 0 mm 1 mps 616 mmHg 92%
    07:00 +17°C° 0 mm 0 mps 617 mmHg 91%
    08:00 +18°C° 0 mm 0 mps 618 mmHg 89%
    09:00 +20°C° 0.2 mm 1 mps 618 mmHg 87%
    10:00 +21°C° 0.2 mm 1 mps 618 mmHg 85%
    11:00 +22°C° 0.2 mm 1 mps 618 mmHg 83%
    12:00 +23°C° 0.6 mm 1 mps 618 mmHg 82%
    13:00 +23°C° 0.6 mm 1 mps 617 mmHg 81%
    14:00 +23°C° 0.6 mm 1 mps 616 mmHg 81%
    15:00 +23°C° 0.7 mm 1 mps 616 mmHg 83%
    16:00 +22°C° 0.7 mm 1 mps 616 mmHg 86%
    17:00 +22°C° 0.7 mm 1 mps 616 mmHg 88%
    18:00 +21°C° 1.8 mm 1 mps 616 mmHg 90%
    19:00 +19°C° 1.8 mm 1 mps 616 mmHg 91%
    20:00 +18°C° 1.8 mm 1 mps 616 mmHg 93%
    21:00 +18°C° 0.7 mm 1 mps 616 mmHg 91%
    22:00 +18°C° 0.7 mm 1 mps 616 mmHg 90%
    23:00 +18°C° 0.7 mm 1 mps 616 mmHg 88%

    Day after tomorrow, 5 April, Sunday

    Time Temperature Precipitation Wind Pressure Humidity
    00:00 +18°C° 0.6 mm 1 mps 616 mmHg 89%
    01:00 +18°C° 0.6 mm 1 mps 616 mmHg 89%
    02:00 +18°C° 0.6 mm 1 mps 616 mmHg 89%
    03:00 +18°C° 0.9 mm 1 mps 616 mmHg 90%
    04:00 +18°C° 0.9 mm 1 mps 616 mmHg 90%
    05:00 +18°C° 0.9 mm 1 mps 616 mmHg 91%
    06:00 +18°C° 0.6 mm 1 mps 616 mmHg 91%
    07:00 +16°C° 0.6 mm 0 mps 617 mmHg 91%
    08:00 +17°C° 0.6 mm 0 mps 618 mmHg 91%
    09:00 +20°C° 0.8 mm 1 mps 618 mmHg 89%
    10:00 +21°C° 0.8 mm 1 mps 618 mmHg 88%
    11:00 +21°C° 0.8 mm 2 mps 618 mmHg 86%
    12:00 +22°C° 0.8 mm 1 mps 617 mmHg 87%
    13:00 +21°C° 0.8 mm 1 mps 617 mmHg 88%
    14:00 +21°C° 0.8 mm 1 mps 616 mmHg 89%
    15:00 +19°C° 0.6 mm 0 mps 616 mmHg 89%
    16:00 +18°C° 0.6 mm 0 mps 615 mmHg 89%
    17:00 +18°C° 0.6 mm 0 mps 615 mmHg 90%
    18:00 +18°C° 0.2 mm 0 mps 615 mmHg 89%
    19:00 +17°C° 0.2 mm 0 mps 616 mmHg 88%
    20:00 +19°C° 0.2 mm 1 mps 617 mmHg 87%
    21:00 +19°C° 0.1 mm 1 mps 617 mmHg 87%
    22:00 +19°C° 0.1 mm 1 mps 617 mmHg 87%
    23:00 +19°C° 0.1 mm 1 mps 617 mmHg 86%

    6 April, Monday

    Time Temperature Precipitation Wind Pressure Humidity
    00:00 +18°C° 0 mm 1 mps 617 mmHg 86%
    01:00 +18°C° 0 mm 1 mps 616 mmHg 86%
    02:00 +18°C° 0 mm 1 mps 616 mmHg 86%
    03:00 +16°C° 0.2 mm 0 mps 616 mmHg 86%
    04:00 +16°C° 0.2 mm 0 mps 616 mmHg 86%
    05:00 +16°C° 0.2 mm 0 mps 616 mmHg 85%
    06:00 +16°C° 0 mm 0 mps 617 mmHg 86%
    07:00 +17°C° 0 mm 0 mps 618 mmHg 86%
    08:00 +17°C° 0 mm 0 mps 618 mmHg 86%
    09:00 +21°C° 0.3 mm 1 mps 619 mmHg 81%
    10:00 +22°C° 0.3 mm 1 mps 619 mmHg 77%
    11:00 +24°C° 0.3 mm 1 mps 619 mmHg 72%
    12:00 +24°C° 0.8 mm 1 mps 619 mmHg 74%
    13:00 +24°C° 0.8 mm 1 mps 618 mmHg 76%
    14:00 +24°C° 0.8 mm 1 mps 617 mmHg 78%
    15:00 +23°C° 1.1 mm 1 mps 617 mmHg 82%
    16:00 +22°C° 1.1 mm 1 mps 616 mmHg 86%
    17:00 +19°C° 1.1 mm 0 mps 616 mmHg 90%
    18:00 +18°C° 0.5 mm 0 mps 616 mmHg 90%
    19:00 +19°C° 0.5 mm 1 mps 616 mmHg 89%
    20:00 +19°C° 0.5 mm 1 mps 617 mmHg 89%
    21:00 +19°C° 0 mm 1 mps 617 mmHg 88%
    22:00 +18°C° 0 mm 1 mps 617 mmHg 88%
    23:00 +18°C° 0 mm 1 mps 617 mmHg 87%

    7 April, Tuesday

    Time Temperature Precipitation Wind Pressure Humidity
    00:00 +18°C° 0 mm 1 mps 617 mmHg 87%
    01:00 +18°C° 0 mm 1 mps 616 mmHg 86%
    02:00 +18°C° 0 mm 1 mps 616 mmHg 86%
    03:00 +18°C° 0 mm 1 mps 616 mmHg 86%
    04:00 +18°C° 0 mm 1 mps 616 mmHg 86%
    05:00 +18°C° 0 mm 1 mps 616 mmHg 86%
    06:00 +18°C° 0.1 mm 1 mps 617 mmHg 86%
    07:00 +19°C° 0.1 mm 1 mps 617 mmHg 85%
    08:00 +19°C° 0.1 mm 1 mps 618 mmHg 84%
    09:00 +20°C° 0.3 mm 1 mps 618 mmHg 82%
    10:00 +21°C° 0.3 mm 1 mps 618 mmHg 80%
    11:00 +22°C° 0.3 mm 1 mps 619 mmHg 78%
    12:00 +23°C° 0.6 mm 1 mps 618 mmHg 76%
    13:00 +23°C° 0.6 mm 1 mps 617 mmHg 75%
    14:00 +23°C° 0.6 mm 1 mps 616 mmHg 74%
    15:00 +23°C° 0.5 mm 1 mps 616 mmHg 77%
    16:00 +22°C° 0.5 mm 1 mps 616 mmHg 80%
    17:00 +22°C° 0.5 mm 1 mps 616 mmHg 83%
    18:00 +20°C° 0.1 mm 1 mps 616 mmHg 84%
    19:00 +19°C° 0.1 mm 1 mps 616 mmHg 86%
    20:00 +18°C° 0.1 mm 1 mps 616 mmHg 88%
    21:00 +18°C° 0 mm 1 mps 616 mmHg 86%
    22:00 +18°C° 0 mm 1 mps 616 mmHg 85%
    23:00 +18°C° 0 mm 1 mps 617 mmHg 83%

    8 April, Wednesday

    Time Temperature Precipitation Wind Pressure Humidity
    00:00 +18°C° 0 mm 1 mps 616 mmHg 83%
    01:00 +16°C° 0 mm 0 mps 616 mmHg 82%
    02:00 +16°C° 0 mm 0 mps 616 mmHg 82%
    03:00 +16°C° 0 mm 0 mps 616 mmHg 82%
    04:00 +16°C° 0 mm 0 mps 616 mmHg 83%
    05:00 +16°C° 0 mm 0 mps 616 mmHg 84%
    06:00 +17°C° 0.1 mm 0 mps 616 mmHg 83%
    07:00 +17°C° 0.1 mm 0 mps 617 mmHg 83%
    08:00 +17°C° 0.1 mm 0 mps 618 mmHg 83%
    09:00 +18°C° 0.1 mm 0 mps 618 mmHg 81%
    10:00 +21°C° 0.1 mm 1 mps 618 mmHg 79%
    11:00 +22°C° 0.1 mm 1 mps 618 mmHg 77%
    12:00 +23°C° 0.9 mm 1 mps 618 mmHg 77%
    13:00 +23°C° 0.9 mm 1 mps 617 mmHg 77%
    14:00 +23°C° 0.9 mm 1 mps 616 mmHg 78%
    15:00 +23°C° 1.5 mm 1 mps 616 mmHg 81%
    16:00 +20°C° 1.5 mm 0 mps 616 mmHg 84%
    17:00 +19°C° 1.5 mm 0 mps 615 mmHg 87%
    18:00 +19°C° 0.3 mm 0 mps 615 mmHg 87%
    19:00 +20°C° 0.3 mm 1 mps 615 mmHg 87%
    20:00 +19°C° 0.3 mm 1 mps 616 mmHg 87%
    21:00 +19°C° 0.1 mm 1 mps 616 mmHg 87%
    22:00 +19°C° 0.1 mm 1 mps 616 mmHg 87%
    23:00 +19°C° 0.1 mm 1 mps 616 mmHg 87%
    Show more